Regional Weather Roundup
Issued by NWS

Home | Current Version | Previous Version | Graphics & Text | Print | Product List | Glossary On
Versions: 1 2 3 4 5 6 7 8 9 10 11 12 13 14 15 16 17 18 19 20 21 22 23 24 25 26 27 28 29 30 31 32 33 34 35 36 37 38 39 40 41 42 43 44 45 46 47 48 49 50
663
ASUS44 KJAN 200710
RWRMS

MISSISSIPPI HOURLY WEATHER ROUNDUP
NATIONAL WEATHER SERVICE JACKSON MS
200 AM CDT MON OCT 20 2014

NOTE: "FAIR: INDICATES FEW OR NO CLOUDS BELOW 12,000 FEET WITH NO
SIGNIFICANT WEATHER AND/OR OBSTRUCTIONS TO VISIBILITY.

MSZ001>002-007>008-010>013-018>021-025>028-034>036-200800-
NORTHWEST MISSISSIPPI

CITY           SKY/WX    TMP DP  RH WIND       PRES   REMARKS
CLARKSDALE     FAIR      50  48  93 CALM      30.09F
CLEVELAND      FAIR      49  49  99 CALM      30.07F FOG
GREENWOOD      FAIR      47  44  90 NE6       30.08F
GREENVILLE     FAIR      50  48  93 CALM      30.07F
GRENADA          N/A    N/A N/A N/A MISG        N/A
OLIVE BRANCH   CLEAR     46  46 100 CALM      30.09F
OXFORD         FAIR      43  41  93 CALM      30.10F
TUNICA         FOG       45  43  93 CALM      30.09F VSB<1/4
$$

MSZ003>006-009-014>017-022>024-029>033-037>039-200800-
NORTHEAST MISSISSIPPI

CITY           SKY/WX    TMP DP  RH WIND       PRES   REMARKS
COLUMBUS AFB   FAIR      46  46  99 CALM      30.09F
CORINTH          N/A     45  43  93 CALM        N/A
GOLDN TRIANGLE FAIR      46  43  87 CALM      30.08F
TUPELO         FAIR      48  46  93 CALM      30.08F
$$

MSZ040-058-200800-
CENTRAL MISSISSIPPI

CITY           SKY/WX    TMP DP  RH WIND       PRES   REMARKS
JACKSON INTL   FAIR      45  43  93 CALM      30.07F
JACKSON HAWKNS FAIR      51  47  86 CALM      30.07F
MERIDIAN KEY   FAIR      46  44  93 CALM      30.08F
MERIDIAN NAS   FAIR      47  45  93 CALM      30.08F
RAYMOND        FAIR      45  41  87 CALM      30.07F
VICKSBURG      FAIR      44  43  96 CALM      30.08F
$$

MSZ059>079-200800-
SOUTH MISSISSIPPI

CITY           SKY/WX    TMP DP  RH WIND       PRES   REMARKS
BROOKHAVEN     FAIR      46  46 100 CALM      30.08F
COLUMBIA         N/A    N/A N/A N/A MISG        N/A
HATTIESBURG    FAIR      48  47  96 CALM      30.07F
MCCOMB         FAIR      51  47  86 CALM      30.06F
NATCHEZ        FAIR      48  45  87 CALM      30.07F
PINE BELT      FAIR      46  43  87 CALM      30.08F
$$

MSZ080>082-200800-
COASTAL MISSISSIPPI

CITY           SKY/WX    TMP DP  RH WIND       PRES   REMARKS
BILOXI         FAIR      56  50  80 NE3       30.05F
PASCAGOULA     FAIR      48  47  96 CALM      30.06F
GULFPORT       FAIR      55  52  89 CALM      30.05F
$$



USA.gov is the U.S. government's official web portal to all federal, state and local government web resources and services.